全球星 M064星 (GLOBALSTAR M064)

导读

GLOBALSTAR M064是全球星(Globalstar)低轨移动通信星座中的一员,由美国主导建设,于2000年2月8日发射升空。该卫星运行在约1400千米高度的近地轨道,属于星座组网卫星,主要为全球南北纬70°以内区域提供话音、数据、短信息、定位等卫星移动通信服务,尤其在偏远地区、海洋等场景发挥通信支撑作用,单星设计寿命7.5年,采用CDMA技术支持多用户并发通信,是全球卫星通信基础设施的组成部分。

Basic Information
目录编号:
26084
目录名称:
GLOBALSTAR M064
国际标识:
2000-008D
轨道中心:
EARTH
卫星名称:
全球星 M064星
卫星全名:
全球星 M064星 (GLOBALSTAR M064)
卫星状态:
在轨 (已飞行9622 天)
发射日期:
2000-02-08 UTC
国别 :
(GLOB)
星等 :
--
Orbit Information
数据来源 国际轨道数据 AOE轨道数据
星历时间 2026-06-13T02:15:23+0800
9小时前
查看轨道信息
2026-06-12T07:00:00+0800
1天前
查看轨道信息
半长轴 8110.699km 8110.721km
偏心率 0.0001965 0.0002131
轨道倾角 52.005° 52.007°
近地点辐角 54.924° 67.035°
升交点赤经 336.516° 338.640°
平近点角 305.178° 98.466°
近地点 1730.968km 1730.855km
远地点 1734.156km 1734.313km
周期 121.157分钟 121.157分钟
每日圈数 11.885444 11.885395
Detailed Information
固有亮度:
5
最大亮度:
7.9
平衡模式:
三轴稳定
覆盖范围:
全球
运营商:
全球星公司
运营商所在国:
美国
使用方式:
暂无
Satellite Introduction
全球星星座由48颗卫星加8颗备份星组成。这些卫星分布在8个倾角为52度的圆形轨道平面上,每个轨道平面6颗卫星,另有1 颗备用星。轨道高度约为1414km,传输时延和处理时延小于300ms,整个系统的覆盖区为南北纬70度以内的地区。该卫星已退役。
2D Orbit Map
3D Orbit Map
Orbit Altitude Analysis Chart
Orbit Inclination Analysis Chart
Orbit Comprehensive Analysis Chart
View Comprehensive Chart